Time,TemperatureF,DewpointF,PressureIn,WindDirection,WindDirectionDegrees,WindSpeedMPH,WindSpeedGustMPH,Humidity,HourlyPrecipIn,Conditions,Clouds,dailyrainin,SoftwareType,DateUTC
2013-01-28 00:00:00,18.4,1.5,30.46,NNW,341,0.0,1.0,47,0.00,,---,0.00,VWS V14.01,2013-01-28 05:00:00,
2013-01-28 00:05:00,18.3,1.9,30.46,NNW,341,0.0,0.0,48,0.00,,---,0.00,VWS V14.01,2013-01-28 05:05:00,
2013-01-28 00:10:00,18.0,2.5,30.46,NNW,341,0.0,1.0,50,0.00,,---,0.00,VWS V14.01,2013-01-28 05:10:00,
2013-01-28 00:15:00,17.8,1.9,30.46,WNW,302,0.0,2.0,49,0.00,,---,0.00,VWS V14.01,2013-01-28 05:15:00,
2013-01-28 00:19:00,17.9,2.0,30.46,WNW,302,0.0,1.0,49,0.00,,---,0.00,VWS V14.01,2013-01-28 05:19:00,
2013-01-28 00:20:00,17.9,2.0,30.46,WNW,302,0.0,1.0,49,0.00,,---,0.00,VWS V14.01,2013-01-28 05:20:00,
2013-01-28 00:25:00,17.9,2.0,30.45,WNW,302,0.0,0.0,49,0.00,,---,0.00,VWS V14.01,2013-01-28 05:25:00,
2013-01-28 00:30:00,17.9,2.8,30.45,WNW,302,0.0,0.0,51,0.00,,---,0.00,VWS V14.01,2013-01-28 05:30:00,
2013-01-28 00:35:00,17.9,3.3,30.45,WNW,302,1.0,2.0,52,0.00,,---,0.00,VWS V14.01,2013-01-28 05:35:00,
2013-01-28 00:40:00,17.9,3.3,30.45,WNW,302,0.0,1.0,52,0.00,,---,0.00,VWS V14.01,2013-01-28 05:40:00,
2013-01-28 00:44:00,18.0,2.9,30.45,WNW,302,0.0,1.0,51,0.00,,---,0.00,VWS V14.01,2013-01-28 05:44:00,
2013-01-28 00:45:00,18.0,2.9,30.45,WNW,302,0.0,1.0,51,0.00,,---,0.00,VWS V14.01,2013-01-28 05:45:00,
2013-01-28 00:50:00,18.2,2.3,30.45,WNW,302,0.0,2.0,49,0.00,,---,0.00,VWS V14.01,2013-01-28 05:50:00,
2013-01-28 00:55:00,18.4,2.9,30.45,West,264,0.0,1.0,50,0.00,,---,0.00,VWS V14.01,2013-01-28 05:55:00,
2013-01-28 01:00:00,18.4,2.4,30.45,North,356,0.0,2.0,49,0.00,,---,0.00,VWS V14.01,2013-01-28 06:00:00,
2013-01-28 01:05:00,18.4,2.4,30.45,North,356,0.0,1.0,49,0.00,,---,0.00,VWS V14.01,2013-01-28 06:05:00,
2013-01-28 01:10:00,18.4,2.4,30.44,North,356,0.0,1.0,49,0.00,,---,0.00,VWS V14.01,2013-01-28 06:10:00,
2013-01-28 01:15:00,18.2,2.7,30.44,North,356,0.0,0.0,50,0.00,,---,0.00,VWS V14.01,2013-01-28 06:15:00,
2013-01-28 01:20:00,18.0,3.8,30.44,North,356,0.0,0.0,53,0.00,,---,0.00,VWS V14.01,2013-01-28 06:20:00,
2013-01-28 01:25:00,17.7,3.9,30.45,North,356,0.0,0.0,54,0.00,,---,0.00,VWS V14.01,2013-01-28 06:25:00,
2013-01-28 01:30:00,17.5,3.3,30.45,North,356,0.0,1.0,53,0.00,,---,0.00,VWS V14.01,2013-01-28 06:30:00,
2013-01-28 01:34:00,17.3,3.5,30.45,North,356,0.0,1.0,54,0.00,,---,0.00,VWS V14.01,2013-01-28 06:34:00,
2013-01-28 01:35:00,17.3,3.5,30.45,North,356,0.0,1.0,54,0.00,,---,0.00,VWS V14.01,2013-01-28 06:35:00,
2013-01-28 01:40:00,17.2,3.4,30.45,NW,313,0.0,2.0,54,0.00,,---,0.00,VWS V14.01,2013-01-28 06:40:00,
2013-01-28 01:45:00,17.2,3.4,30.45,NW,313,0.0,1.0,54,0.00,,---,0.00,VWS V14.01,2013-01-28 06:45:00,
2013-01-28 01:50:00,17.2,3.4,30.46,NW,312,0.0,2.0,54,0.00,,---,0.00,VWS V14.01,2013-01-28 06:50:00,
2013-01-28 01:55:00,17.2,3.4,30.45,NNW,335,0.0,2.0,54,0.00,,---,0.00,VWS V14.01,2013-01-28 06:55:00,
2013-01-28 02:00:00,17.2,3.8,30.45,NNW,335,0.0,1.0,55,0.00,,---,0.00,VWS V14.01,2013-01-28 07:00:00,
2013-01-28 02:05:00,17.2,3.8,30.46,NNW,335,0.0,1.0,55,0.00,,---,0.00,VWS V14.01,2013-01-28 07:05:00,
2013-01-28 02:10:00,17.3,3.1,30.45,NNW,335,0.0,1.0,53,0.00,,---,0.00,VWS V14.01,2013-01-28 07:10:00,
2013-01-28 02:15:00,17.7,3.5,30.45,NNW,335,0.0,3.0,53,0.00,,---,0.00,VWS V14.01,2013-01-28 07:15:00,
2013-01-28 02:20:00,17.9,3.7,30.45,NNW,335,0.0,2.0,53,0.00,,---,0.00,VWS V14.01,2013-01-28 07:20:00,
2013-01-28 02:25:00,18.1,3.9,30.45,NNW,335,0.0,2.0,53,0.00,,---,0.00,VWS V14.01,2013-01-28 07:25:00,
2013-01-28 02:30:00,18.3,3.6,30.45,NNW,335,0.0,3.0,52,0.00,,---,0.00,VWS V14.01,2013-01-28 07:30:00,
2013-01-28 02:35:00,18.5,3.4,30.45,NNW,334,0.0,2.0,51,0.00,,---,0.00,VWS V14.01,2013-01-28 07:35:00,
2013-01-28 02:40:00,18.6,3.5,30.45,NNW,334,0.0,1.0,51,0.00,,---,0.00,VWS V14.01,2013-01-28 07:40:00,
2013-01-28 02:45:00,18.6,3.5,30.45,NNW,334,0.0,1.0,51,0.00,,---,0.00,VWS V14.01,2013-01-28 07:45:00,
2013-01-28 02:50:00,18.5,3.4,30.44,NNW,334,0.0,0.0,51,0.00,,---,0.00,VWS V14.01,2013-01-28 07:50:00,
2013-01-28 02:55:00,18.4,4.1,30.44,NNW,334,0.0,0.0,53,0.00,,---,0.00,VWS V14.01,2013-01-28 07:55:00,
2013-01-28 03:00:00,18.3,4.4,30.44,NNW,334,0.0,2.0,54,0.00,,---,0.00,VWS V14.01,2013-01-28 08:00:00,
2013-01-28 03:05:00,18.2,4.4,30.44,NNW,334,0.0,0.0,54,0.00,,---,0.00,VWS V14.01,2013-01-28 08:05:00,
2013-01-28 03:10:00,18.1,4.3,30.44,NNW,334,0.0,0.0,54,0.00,,---,0.00,VWS V14.01,2013-01-28 08:10:00,
2013-01-28 03:15:00,17.9,4.5,30.44,NNW,334,0.0,1.0,55,0.00,,---,0.00,VWS V14.01,2013-01-28 08:15:00,
2013-01-28 03:20:00,17.9,4.5,30.44,NNW,334,0.0,0.0,55,0.00,,---,0.00,VWS V14.01,2013-01-28 08:20:00,
2013-01-28 03:25:00,17.7,3.9,30.44,NNW,334,0.0,1.0,54,0.00,,---,0.00,VWS V14.01,2013-01-28 08:25:00,
2013-01-28 03:30:00,17.7,4.3,30.44,NNW,334,0.0,0.0,55,0.00,,---,0.00,VWS V14.01,2013-01-28 08:30:00,
2013-01-28 03:35:00,17.9,4.5,30.44,NNW,334,0.0,0.0,55,0.00,,---,0.00,VWS V14.01,2013-01-28 08:35:00,
2013-01-28 03:40:00,18.0,4.6,30.44,NNW,334,0.0,1.0,55,0.00,,---,0.00,VWS V14.01,2013-01-28 08:40:00,
2013-01-28 03:44:00,18.2,4.4,30.44,NNW,334,0.0,0.0,54,0.00,,---,0.00,VWS V14.01,2013-01-28 08:44:00,
2013-01-28 03:45:00,18.2,4.4,30.44,NNW,334,0.0,0.0,54,0.00,,---,0.00,VWS V14.01,2013-01-28 08:45:00,
2013-01-28 03:50:00,18.4,4.6,30.44,NNW,334,0.0,1.0,54,0.00,,---,0.00,VWS V14.01,2013-01-28 08:50:00,
2013-01-28 03:55:00,18.5,4.2,30.43,NNW,334,0.0,0.0,53,0.00,,---,0.00,VWS V14.01,2013-01-28 08:55:00,
2013-01-28 04:00:00,18.6,4.7,30.43,NNW,334,0.0,1.0,54,0.00,,---,0.00,VWS V14.01,2013-01-28 09:00:00,
2013-01-28 04:05:00,18.7,4.4,30.43,NNW,334,0.0,1.0,53,0.00,,---,0.00,VWS V14.01,2013-01-28 09:05:00,
2013-01-28 04:10:00,18.7,4.4,30.43,NNW,334,0.0,0.0,53,0.00,,---,0.00,VWS V14.01,2013-01-28 09:10:00,
2013-01-28 04:15:00,18.7,4.4,30.43,NNW,334,0.0,0.0,53,0.00,,---,0.00,VWS V14.01,2013-01-28 09:15:00,
2013-01-28 04:20:00,18.7,4.8,30.43,NNW,334,0.0,0.0,54,0.00,,---,0.00,VWS V14.01,2013-01-28 09:20:00,
2013-01-28 04:25:00,18.6,4.7,30.43,NNW,334,0.0,0.0,54,0.00,,---,0.00,VWS V14.01,2013-01-28 09:25:00,
2013-01-28 04:30:00,18.6,5.1,30.42,NNW,334,0.0,0.0,55,0.00,,---,0.00,VWS V14.01,2013-01-28 09:30:00,
2013-01-28 04:35:00,18.6,5.1,30.42,NNW,334,0.0,0.0,55,0.00,,---,0.00,VWS V14.01,2013-01-28 09:35:00,
2013-01-28 04:40:00,18.5,4.6,30.42,NNW,334,0.0,0.0,54,0.00,,---,0.00,VWS V14.01,2013-01-28 09:40:00,
2013-01-28 04:45:00,18.5,5.4,30.42,NNW,334,0.0,0.0,56,0.00,,---,0.00,VWS V14.01,2013-01-28 09:45:00,
2013-01-28 04:50:00,18.5,5.8,30.42,NNW,334,0.0,0.0,57,0.00,,---,0.00,VWS V14.01,2013-01-28 09:50:00,
2013-01-28 04:55:00,18.5,5.8,30.42,NNW,334,0.0,0.0,57,0.00,,---,0.00,VWS V14.01,2013-01-28 09:55:00,
2013-01-28 05:00:00,18.5,6.2,30.42,NNW,334,0.0,0.0,58,0.00,,---,0.00,VWS V14.01,2013-01-28 10:00:00,
2013-01-28 05:05:00,18.5,6.2,30.42,NNW,334,0.0,0.0,58,0.00,,---,0.00,VWS V14.01,2013-01-28 10:05:00,
2013-01-28 05:10:00,18.3,6.0,30.42,NNW,334,0.0,1.0,58,0.00,,---,0.00,VWS V14.01,2013-01-28 10:10:00,
2013-01-28 05:15:00,18.2,5.5,30.42,NNW,334,0.0,0.0,57,0.00,,---,0.00,VWS V14.01,2013-01-28 10:15:00,
2013-01-28 05:20:00,17.9,5.6,30.42,NNW,334,0.0,0.0,58,0.00,,---,0.00,VWS V14.01,2013-01-28 10:20:00,
2013-01-28 05:25:00,17.8,5.9,30.42,NNW,334,0.0,0.0,59,0.00,,---,0.00,VWS V14.01,2013-01-28 10:25:00,
2013-01-28 05:30:00,17.6,6.1,30.42,NNW,334,0.0,0.0,60,0.00,,---,0.00,VWS V14.01,2013-01-28 10:30:00,
2013-01-28 05:35:00,17.4,5.9,30.43,NNW,334,0.0,0.0,60,0.00,,---,0.00,VWS V14.01,2013-01-28 10:35:00,
2013-01-28 05:40:00,17.2,6.4,30.42,NNW,334,0.0,0.0,62,0.00,,---,0.00,VWS V14.01,2013-01-28 10:40:00,
2013-01-28 05:45:00,17.0,6.2,30.42,NNW,334,0.0,0.0,62,0.00,,---,0.00,VWS V14.01,2013-01-28 10:45:00,
2013-01-28 05:50:00,16.9,6.2,30.42,NNW,334,0.0,0.0,62,0.00,,---,0.00,VWS V14.01,2013-01-28 10:50:00,
2013-01-28 05:55:00,16.8,6.4,30.42,NNW,334,0.0,0.0,63,0.00,,---,0.00,VWS V14.01,2013-01-28 10:55:00,
2013-01-28 06:00:00,16.9,6.5,30.42,NNW,334,0.0,0.0,63,0.00,,---,0.00,VWS V14.01,2013-01-28 11:00:00,
2013-01-28 06:05:00,16.9,6.5,30.42,NNW,334,0.0,0.0,63,0.00,,---,0.00,VWS V14.01,2013-01-28 11:05:00,
2013-01-28 06:10:00,16.9,6.5,30.42,NNW,334,0.0,0.0,63,0.00,,---,0.00,VWS V14.01,2013-01-28 11:10:00,
2013-01-28 06:15:00,16.9,6.8,30.42,NNW,334,0.0,0.0,64,0.00,,---,0.00,VWS V14.01,2013-01-28 11:15:00,
2013-01-28 06:20:00,16.9,6.8,30.42,NNW,334,0.0,0.0,64,0.00,,---,0.00,VWS V14.01,2013-01-28 11:20:00,
2013-01-28 06:25:00,16.9,7.2,30.42,NNW,334,0.0,0.0,65,0.00,,---,0.00,VWS V14.01,2013-01-28 11:25:00,
2013-01-28 06:30:00,16.9,7.5,30.42,NNW,334,0.0,0.0,66,0.00,,---,0.00,VWS V14.01,2013-01-28 11:30:00,
2013-01-28 06:35:00,16.9,7.5,30.42,NNW,334,0.0,0.0,66,0.00,,---,0.00,VWS V14.01,2013-01-28 11:35:00,
2013-01-28 06:40:00,16.9,7.5,30.42,NNW,334,0.0,0.0,66,0.00,,---,0.00,VWS V14.01,2013-01-28 11:40:00,
2013-01-28 06:45:00,16.9,7.2,30.42,NNW,334,0.0,0.0,65,0.00,,---,0.00,VWS V14.01,2013-01-28 11:45:00,
2013-01-28 06:50:00,16.9,7.5,30.41,NNW,334,0.0,0.0,66,0.00,,---,0.00,VWS V14.01,2013-01-28 11:50:00,
2013-01-28 06:55:00,17.0,7.6,30.41,NNW,334,0.0,0.0,66,0.00,,---,0.00,VWS V14.01,2013-01-28 11:55:00,
2013-01-28 07:00:00,17.1,7.7,30.41,NNW,334,0.0,0.0,66,0.00,,---,0.00,VWS V14.01,2013-01-28 12:00:00,
2013-01-28 07:05:00,17.2,7.8,30.41,NNW,334,0.0,0.0,66,0.00,,---,0.00,VWS V14.01,2013-01-28 12:05:00,
2013-01-28 07:10:00,17.2,7.8,30.42,NNW,334,0.0,0.0,66,0.00,,---,0.00,VWS V14.01,2013-01-28 12:10:00,
2013-01-28 07:15:00,17.3,7.9,30.42,NNW,334,0.0,0.0,66,0.00,,---,0.00,VWS V14.01,2013-01-28 12:15:00,
2013-01-28 07:20:00,17.3,7.9,30.42,NNW,334,0.0,0.0,66,0.00,,---,0.00,VWS V14.01,2013-01-28 12:20:00,
2013-01-28 07:25:00,17.4,7.7,30.42,NNW,334,0.0,0.0,65,0.00,,---,0.00,VWS V14.01,2013-01-28 12:25:00,
2013-01-28 07:30:00,17.5,7.1,30.42,NNW,334,0.0,0.0,63,0.00,,---,0.00,VWS V14.01,2013-01-28 12:30:00,
2013-01-28 07:35:00,17.8,7.3,30.41,NNW,334,0.0,0.0,63,0.00,,---,0.00,VWS V14.01,2013-01-28 12:35:00,
2013-01-28 07:40:00,18.0,8.2,30.41,NNW,334,0.0,0.0,65,0.00,,---,0.00,VWS V14.01,2013-01-28 12:40:00,
2013-01-28 07:45:00,18.3,8.2,30.42,NNW,334,0.0,0.0,64,0.00,,---,0.00,VWS V14.01,2013-01-28 12:45:00,
2013-01-28 07:50:00,18.7,7.9,30.42,NNW,334,0.0,0.0,62,0.00,,---,0.00,VWS V14.01,2013-01-28 12:50:00,
2013-01-28 07:55:00,19.0,8.1,30.42,NNW,334,0.0,0.0,62,0.00,,---,0.00,VWS V14.01,2013-01-28 12:55:00,
2013-01-28 08:00:00,19.4,8.2,30.42,NNW,334,0.0,2.0,61,0.00,,---,0.00,VWS V14.01,2013-01-28 13:00:00,
2013-01-28 08:05:00,19.8,8.2,30.42,NNW,334,0.0,0.0,60,0.00,,---,0.00,VWS V14.01,2013-01-28 13:05:00,
2013-01-28 08:10:00,20.1,8.1,30.42,NNW,334,0.0,0.0,59,0.00,,---,0.00,VWS V14.01,2013-01-28 13:10:00,
2013-01-28 08:15:00,20.4,8.0,30.41,NNW,334,0.0,1.0,58,0.00,,---,0.00,VWS V14.01,2013-01-28 13:15:00,
2013-01-28 08:20:00,20.8,8.0,30.42,NNW,334,0.0,1.0,57,0.00,,---,0.00,VWS V14.01,2013-01-28 13:20:00,
2013-01-28 08:25:00,21.1,7.5,30.42,SW,231,0.0,4.0,55,0.00,,---,0.00,VWS V14.01,2013-01-28 13:25:00,
2013-01-28 08:30:00,21.3,8.1,30.41,SW,231,0.0,2.0,56,0.00,,---,0.00,VWS V14.01,2013-01-28 13:30:00,
2013-01-28 08:35:00,21.7,8.4,30.41,SW,231,0.0,1.0,56,0.00,,---,0.00,VWS V14.01,2013-01-28 13:35:00,
2013-01-28 08:40:00,22.0,7.9,30.41,SW,231,0.0,0.0,54,0.00,,---,0.00,VWS V14.01,2013-01-28 13:40:00,
2013-01-28 08:45:00,22.4,7.9,30.41,SW,231,0.0,1.0,53,0.00,,---,0.00,VWS V14.01,2013-01-28 13:45:00,
2013-01-28 08:50:00,22.7,7.7,30.41,NNW,330,2.0,2.0,52,0.00,,---,0.00,VWS V14.01,2013-01-28 13:50:00,
2013-01-28 08:55:00,22.9,7.1,30.41,NNE,26,1.0,3.0,50,0.00,,---,0.00,VWS V14.01,2013-01-28 13:55:00,
2013-01-28 09:00:00,23.1,6.8,30.41,NNE,26,0.0,2.0,49,0.00,,---,0.00,VWS V14.01,2013-01-28 14:00:00,
2013-01-28 09:05:00,23.5,8.1,30.41,NNE,26,0.0,0.0,51,0.00,,---,0.00,VWS V14.01,2013-01-28 14:05:00,
2013-01-28 09:10:00,23.9,7.5,30.41,NNE,26,1.0,1.0,49,0.00,,---,0.00,VWS V14.01,2013-01-28 14:10:00,
2013-01-28 09:15:00,24.3,7.4,30.41,NNE,20,3.0,3.0,48,0.00,,---,0.00,VWS V14.01,2013-01-28 14:15:00,
2013-01-28 09:20:00,24.5,6.7,30.41,NNE,20,1.0,3.0,46,0.00,,---,0.00,VWS V14.01,2013-01-28 14:20:00,
2013-01-28 09:25:00,24.7,5.4,30.41,North,11,1.0,2.0,43,0.00,,---,0.00,VWS V14.01,2013-01-28 14:25:00,
2013-01-28 09:30:00,24.9,5.6,30.41,North,11,0.0,2.0,43,0.00,,---,0.00,VWS V14.01,2013-01-28 14:30:00,
2013-01-28 09:35:00,25.0,6.2,30.41,North,8,0.0,2.0,44,0.00,,---,0.00,VWS V14.01,2013-01-28 14:35:00,
2013-01-28 09:40:00,25.3,6.4,30.40,North,8,0.0,2.0,44,0.00,,---,0.00,VWS V14.01,2013-01-28 14:40:00,
2013-01-28 09:45:00,25.5,6.1,30.41,SSE,154,0.0,2.0,43,0.00,,---,0.00,VWS V14.01,2013-01-28 14:45:00,
2013-01-28 09:50:00,25.6,5.7,30.41,West,273,2.0,2.0,42,0.00,,---,0.00,VWS V14.01,2013-01-28 14:50:00,
2013-01-28 09:55:00,25.6,5.7,30.40,WSW,255,0.0,2.0,42,0.00,,---,0.00,VWS V14.01,2013-01-28 14:55:00,
2013-01-28 10:00:00,25.8,5.4,30.41,WSW,255,1.0,1.0,41,0.00,,---,0.00,VWS V14.01,2013-01-28 15:00:00,
2013-01-28 10:05:00,25.9,4.9,30.40,WSW,255,0.0,2.0,40,0.00,,---,0.00,VWS V14.01,2013-01-28 15:05:00,
2013-01-28 10:10:00,26.0,5.0,30.40,WSW,255,0.0,2.0,40,0.00,,---,0.00,VWS V14.01,2013-01-28 15:10:00,
2013-01-28 10:15:00,26.2,6.8,30.40,WSW,255,0.0,0.0,43,0.00,,---,0.00,VWS V14.01,2013-01-28 15:15:00,
2013-01-28 10:20:00,26.5,7.6,30.40,WSW,255,0.0,1.0,44,0.00,,---,0.00,VWS V14.01,2013-01-28 15:20:00,
2013-01-28 10:25:00,26.7,6.2,30.40,WSW,255,0.0,1.0,41,0.00,,---,0.00,VWS V14.01,2013-01-28 15:25:00,
2013-01-28 10:30:00,26.9,6.9,30.40,WSW,255,0.0,1.0,42,0.00,,---,0.00,VWS V14.01,2013-01-28 15:30:00,
2013-01-28 10:35:00,27.1,6.5,30.39,WSW,255,0.0,1.0,41,0.00,,---,0.00,VWS V14.01,2013-01-28 15:35:00,
2013-01-28 10:40:00,27.2,6.1,30.38,WSW,255,0.0,1.0,40,0.00,,---,0.00,VWS V14.01,2013-01-28 15:40:00,
2013-01-28 10:45:00,27.3,6.2,30.38,WSW,255,0.0,1.0,40,0.00,,---,0.00,VWS V14.01,2013-01-28 15:45:00,
2013-01-28 10:50:00,27.4,5.7,30.38,WSW,255,0.0,1.0,39,0.00,,---,0.00,VWS V14.01,2013-01-28 15:50:00,
2013-01-28 10:55:00,27.4,5.7,30.37,WSW,255,0.0,1.0,39,0.00,,---,0.00,VWS V14.01,2013-01-28 15:55:00,
2013-01-28 11:00:00,27.5,5.2,30.37,South,176,0.0,3.0,38,0.00,,---,0.00,VWS V14.01,2013-01-28 16:00:00,
2013-01-28 11:05:00,27.6,5.9,30.37,South,176,1.0,1.0,39,0.00,,---,0.00,VWS V14.01,2013-01-28 16:05:00,
2013-01-28 11:10:00,27.7,5.4,30.37,South,179,1.0,3.0,38,0.00,,---,0.00,VWS V14.01,2013-01-28 16:10:00,
2013-01-28 11:15:00,27.8,3.7,30.36,South,179,0.0,1.0,35,0.00,,---,0.00,VWS V14.01,2013-01-28 16:15:00,
2013-01-28 11:20:00,27.8,3.7,30.35,SW,217,1.0,3.0,35,0.00,,---,0.00,VWS V14.01,2013-01-28 16:20:00,
2013-01-28 11:25:00,27.8,3.7,30.35,SSW,198,2.0,3.0,35,0.00,,---,0.00,VWS V14.01,2013-01-28 16:25:00,
2013-01-28 11:30:00,27.9,5.0,30.35,SSW,198,1.0,2.0,37,0.00,,---,0.00,VWS V14.01,2013-01-28 16:30:00,
2013-01-28 11:35:00,28.0,4.5,30.35,SSW,198,0.0,2.0,36,0.00,,---,0.00,VWS V14.01,2013-01-28 16:35:00,
2013-01-28 11:40:00,28.1,4.0,30.34,SSW,198,0.0,2.0,35,0.00,,---,0.00,VWS V14.01,2013-01-28 16:40:00,
2013-01-28 11:45:00,28.0,4.5,30.34,SSW,208,0.0,4.0,36,0.00,,---,0.00,VWS V14.01,2013-01-28 16:45:00,
2013-01-28 11:50:00,28.1,5.2,30.34,SSW,208,2.0,3.0,37,0.00,,---,0.00,VWS V14.01,2013-01-28 16:50:00,
2013-01-28 11:55:00,28.1,4.6,30.33,SSW,208,0.0,3.0,36,0.00,,---,0.00,VWS V14.01,2013-01-28 16:55:00,
2013-01-28 12:00:00,28.2,4.7,30.33,SW,230,1.0,4.0,36,0.00,,---,0.00,VWS V14.01,2013-01-28 17:00:00,
2013-01-28 12:05:00,28.2,4.7,30.32,SSW,196,0.0,3.0,36,0.00,,---,0.00,VWS V14.01,2013-01-28 17:05:00,
2013-01-28 12:10:00,28.4,4.9,30.31,SSE,154,1.0,2.0,36,0.00,,---,0.00,VWS V14.01,2013-01-28 17:10:00,
2013-01-28 12:15:00,28.5,5.0,30.30,SSE,161,1.0,3.0,36,0.00,,---,0.00,VWS V14.01,2013-01-28 17:15:00,
2013-01-28 12:20:00,28.5,5.0,30.31,SW,232,0.0,5.0,36,0.00,,---,0.00,VWS V14.01,2013-01-28 17:20:00,
2013-01-28 12:25:00,28.6,5.6,30.31,SW,232,0.0,1.0,37,0.00,,---,0.00,VWS V14.01,2013-01-28 17:25:00,
2013-01-28 12:30:00,28.7,5.1,30.31,SSW,192,0.0,3.0,36,0.00,,---,0.00,VWS V14.01,2013-01-28 17:30:00,
2013-01-28 12:35:00,28.8,5.8,30.31,SSW,192,0.0,1.0,37,0.00,,---,0.00,VWS V14.01,2013-01-28 17:35:00,
2013-01-28 12:40:00,28.9,5.9,30.30,SSW,192,1.0,2.0,37,0.00,,---,0.00,VWS V14.01,2013-01-28 17:40:00,
2013-01-28 12:45:00,28.9,5.9,30.30,West,262,0.0,3.0,37,0.00,,---,0.00,VWS V14.01,2013-01-28 17:45:00,
2013-01-28 12:50:00,28.9,5.9,30.29,West,265,0.0,4.0,37,0.00,,---,0.00,VWS V14.01,2013-01-28 17:50:00,
2013-01-28 12:55:00,29.1,6.7,30.28,South,171,1.0,3.0,38,0.00,,---,0.00,VWS V14.01,2013-01-28 17:55:00,
2013-01-28 13:00:00,29.2,6.8,30.28,SSE,164,2.0,2.0,38,0.00,,---,0.00,VWS V14.01,2013-01-28 18:00:00,
2013-01-28 13:05:00,29.3,6.9,30.28,SSE,164,0.0,2.0,38,0.00,,---,0.00,VWS V14.01,2013-01-28 18:05:00,
2013-01-28 13:10:00,29.4,6.9,30.28,SSE,164,0.0,2.0,38,0.00,,---,0.00,VWS V14.01,2013-01-28 18:10:00,
2013-01-28 13:15:00,29.4,6.4,30.27,SSW,205,0.0,3.0,37,0.00,,---,0.00,VWS V14.01,2013-01-28 18:15:00,
2013-01-28 13:20:00,29.5,7.0,30.27,WSW,238,3.0,4.0,38,0.00,,---,0.00,VWS V14.01,2013-01-28 18:20:00,
2013-01-28 13:25:00,29.6,6.5,30.26,SSW,194,1.0,4.0,37,0.00,,---,0.00,VWS V14.01,2013-01-28 18:25:00,
2013-01-28 13:30:00,29.7,6.6,30.26,SE,144,0.0,2.0,37,0.00,,---,0.00,VWS V14.01,2013-01-28 18:30:00,
2013-01-28 13:35:00,29.8,6.7,30.25,SW,219,0.0,4.0,37,0.00,,---,0.00,VWS V14.01,2013-01-28 18:35:00,
2013-01-28 13:40:00,29.9,7.4,30.25,South,184,0.0,2.0,38,0.00,,---,0.00,VWS V14.01,2013-01-28 18:40:00,
2013-01-28 13:45:00,30.0,8.1,30.24,WSW,248,0.0,3.0,39,0.00,,---,0.00,VWS V14.01,2013-01-28 18:45:00,
2013-01-28 13:50:00,30.0,9.7,30.24,SE,134,0.0,2.0,42,0.00,,---,0.00,VWS V14.01,2013-01-28 18:50:00,
2013-01-28 13:55:00,29.9,10.6,30.23,SSE,156,3.0,5.0,44,0.00,,---,0.00,VWS V14.01,2013-01-28 18:55:00,
2013-01-28 14:00:00,29.5,11.8,30.23,South,169,0.0,4.0,47,0.00,,---,0.00,VWS V14.01,2013-01-28 19:00:00,
2013-01-28 14:05:00,29.4,11.7,30.23,South,190,0.0,3.0,47,0.00,,---,0.00,VWS V14.01,2013-01-28 19:05:00,
2013-01-28 14:10:00,29.4,12.6,30.22,South,186,0.0,2.0,49,0.00,,---,0.00,VWS V14.01,2013-01-28 19:10:00,
2013-01-28 14:15:00,29.3,13.4,30.22,South,186,0.0,2.0,51,0.00,,---,0.00,VWS V14.01,2013-01-28 19:15:00,
2013-01-28 14:20:00,29.2,13.8,30.21,WSW,257,1.0,4.0,52,0.00,,---,0.00,VWS V14.01,2013-01-28 19:20:00,
2013-01-28 14:25:00,29.1,14.5,30.21,WSW,242,1.0,4.0,54,0.00,,---,0.00,VWS V14.01,2013-01-28 19:25:00,
2013-01-28 14:30:00,28.9,15.2,30.21,WNW,291,4.0,5.0,56,0.00,,---,0.00,VWS V14.01,2013-01-28 19:30:00,
2013-01-28 14:35:00,28.5,16.0,30.21,WSW,242,0.0,9.0,59,0.00,,---,0.00,VWS V14.01,2013-01-28 19:35:00,
2013-01-28 14:40:00,28.3,17.7,30.21,SSW,197,3.0,5.0,64,0.00,,---,0.00,VWS V14.01,2013-01-28 19:40:00,
2013-01-28 14:45:00,27.9,18.0,30.21,NNE,30,0.0,4.0,66,0.00,,---,0.00,VWS V14.01,2013-01-28 19:45:00,
2013-01-28 14:50:00,27.7,18.5,30.21,South,184,2.0,4.0,68,0.00,,---,0.00,VWS V14.01,2013-01-28 19:50:00,
2013-01-28 14:55:00,27.3,19.1,30.21,WSW,238,0.0,7.0,71,0.00,,---,0.00,VWS V14.01,2013-01-28 19:55:00,
2013-01-28 15:00:00,27.0,19.8,30.21,SW,223,0.0,3.0,74,0.00,,---,0.00,VWS V14.01,2013-01-28 20:00:00,
2013-01-28 15:05:00,26.8,20.3,30.20,South,180,3.0,5.0,76,0.00,,---,0.00,VWS V14.01,2013-01-28 20:05:00,
2013-01-28 15:10:00,26.5,20.9,30.20,WSW,241,1.0,4.0,79,0.00,,---,0.00,VWS V14.01,2013-01-28 20:10:00,
2013-01-28 15:15:00,26.2,21.2,30.19,SW,225,0.0,3.0,81,0.00,,---,0.00,VWS V14.01,2013-01-28 20:15:00,
2013-01-28 15:20:00,26.0,21.3,30.19,SW,225,0.0,2.0,82,0.00,,---,0.00,VWS V14.01,2013-01-28 20:20:00,
2013-01-28 15:25:00,25.8,21.4,30.20,SW,231,0.0,3.0,83,0.00,,---,0.00,VWS V14.01,2013-01-28 20:25:00,
2013-01-28 15:30:00,25.7,21.5,30.19,SW,231,0.0,1.0,84,0.00,,---,0.00,VWS V14.01,2013-01-28 20:30:00,
2013-01-28 15:35:00,25.6,21.7,30.19,WSW,238,0.0,3.0,85,0.00,,---,0.00,VWS V14.01,2013-01-28 20:35:00,
2013-01-28 15:40:00,25.5,21.9,30.19,WSW,238,0.0,1.0,86,0.00,,---,0.00,VWS V14.01,2013-01-28 20:40:00,
2013-01-28 15:45:00,25.5,22.2,30.19,WSW,238,0.0,1.0,87,0.00,,---,0.00,VWS V14.01,2013-01-28 20:45:00,
2013-01-28 15:50:00,25.4,22.1,30.19,SW,236,0.0,1.0,87,0.00,,---,0.00,VWS V14.01,2013-01-28 20:50:00,
2013-01-28 15:55:00,25.4,22.1,30.18,SW,236,0.0,1.0,87,0.00,,---,0.00,VWS V14.01,2013-01-28 20:55:00,
2013-01-28 16:00:00,25.3,22.0,30.19,SW,236,0.0,1.0,87,0.00,,---,0.00,VWS V14.01,2013-01-28 21:00:00,
2013-01-28 16:05:00,25.3,22.0,30.19,SE,131,0.0,2.0,87,0.00,,---,0.00,VWS V14.01,2013-01-28 21:05:00,
2013-01-28 16:10:00,25.2,22.1,30.19,SE,131,0.0,1.0,88,0.00,,---,0.00,VWS V14.01,2013-01-28 21:10:00,
2013-01-28 16:15:00,25.2,22.1,30.19,SE,131,0.0,1.0,88,0.00,,---,0.00,VWS V14.01,2013-01-28 21:15:00,
2013-01-28 16:20:00,25.2,22.1,30.19,SE,131,0.0,1.0,88,0.00,,---,0.00,VWS V14.01,2013-01-28 21:20:00,
2013-01-28 16:25:00,25.2,22.1,30.19,SE,131,0.0,1.0,88,0.00,,---,0.00,VWS V14.01,2013-01-28 21:25:00,
2013-01-28 16:30:00,25.2,22.1,30.19,SE,131,0.0,1.0,88,0.00,,---,0.00,VWS V14.01,2013-01-28 21:30:00,
2013-01-28 16:35:00,25.2,22.4,30.18,SE,131,0.0,1.0,89,0.00,,---,0.00,VWS V14.01,2013-01-28 21:35:00,
2013-01-28 16:40:00,25.2,22.4,30.17,SE,131,0.0,1.0,89,0.00,,---,0.00,VWS V14.01,2013-01-28 21:40:00,
2013-01-28 16:45:00,25.2,22.4,30.17,SE,131,0.0,2.0,89,0.00,,---,0.00,VWS V14.01,2013-01-28 21:45:00,
2013-01-28 16:50:00,25.2,22.7,30.16,SE,131,1.0,2.0,90,0.00,,---,0.00,VWS V14.01,2013-01-28 21:50:00,
2013-01-28 16:55:00,25.2,22.7,30.15,SE,131,0.0,1.0,90,0.00,,---,0.00,VWS V14.01,2013-01-28 21:55:00,
2013-01-28 17:00:00,25.1,22.6,30.15,SE,131,1.0,1.0,90,0.00,,---,0.00,VWS V14.01,2013-01-28 22:00:00,
2013-01-28 17:05:00,25.2,22.7,30.15,SE,131,0.0,1.0,90,0.00,,---,0.00,VWS V14.01,2013-01-28 22:05:00,
2013-01-28 17:10:00,25.2,22.7,30.15,SE,131,0.0,2.0,90,0.00,,---,0.00,VWS V14.01,2013-01-28 22:10:00,
2013-01-28 17:15:00,25.1,22.9,30.14,SE,132,0.0,2.0,91,0.00,,---,0.00,VWS V14.01,2013-01-28 22:15:00,
2013-01-28 17:20:00,25.1,22.9,30.14,SE,132,0.0,1.0,91,0.00,,---,0.00,VWS V14.01,2013-01-28 22:20:00,
2013-01-28 17:25:00,25.1,22.9,30.14,SE,132,0.0,2.0,91,0.00,,---,0.00,VWS V14.01,2013-01-28 22:25:00,
2013-01-28 17:30:00,25.1,22.9,30.13,SE,132,0.0,2.0,91,0.00,,---,0.00,VWS V14.01,2013-01-28 22:30:00,
2013-01-28 17:35:00,25.2,23.0,30.13,SE,131,0.0,2.0,91,0.00,,---,0.00,VWS V14.01,2013-01-28 22:35:00,
2013-01-28 17:40:00,25.2,23.0,30.13,SE,131,0.0,1.0,91,0.00,,---,0.00,VWS V14.01,2013-01-28 22:40:00,
2013-01-28 17:45:00,25.2,23.0,30.12,SE,131,0.0,1.0,91,0.00,,---,0.00,VWS V14.01,2013-01-28 22:45:00,
2013-01-28 17:50:00,25.2,23.2,30.12,SE,131,0.0,1.0,92,0.00,,---,0.00,VWS V14.01,2013-01-28 22:50:00,
2013-01-28 17:55:00,25.3,23.3,30.12,SE,131,0.0,1.0,92,0.00,,---,0.00,VWS V14.01,2013-01-28 22:55:00,
2013-01-28 18:00:00,25.3,23.3,30.12,SE,142,0.0,1.0,92,0.00,,---,0.00,VWS V14.01,2013-01-28 23:00:00,
2013-01-28 18:05:00,25.3,23.3,30.13,SE,142,0.0,1.0,92,0.00,,---,0.00,VWS V14.01,2013-01-28 23:05:00,
2013-01-28 18:10:00,25.3,23.3,30.12,SE,142,0.0,1.0,92,0.00,,---,0.00,VWS V14.01,2013-01-28 23:10:00,
2013-01-28 18:15:00,25.3,23.3,30.11,SE,142,1.0,1.0,92,0.00,,---,0.00,VWS V14.01,2013-01-28 23:15:00,
2013-01-28 18:20:00,25.3,23.3,30.11,SE,142,2.0,2.0,92,0.00,,---,0.00,VWS V14.01,2013-01-28 23:20:00,
2013-01-28 18:25:00,25.3,23.3,30.10,SE,131,0.0,2.0,92,0.00,,---,0.00,VWS V14.01,2013-01-28 23:25:00,
2013-01-28 18:30:00,25.4,23.4,30.10,SSE,159,0.0,1.0,92,0.00,,---,0.00,VWS V14.01,2013-01-28 23:30:00,
2013-01-28 18:35:00,25.4,23.4,30.10,SSE,159,0.0,1.0,92,0.00,,---,0.00,VWS V14.01,2013-01-28 23:35:00,
2013-01-28 18:40:00,25.5,23.5,30.10,SSE,159,0.0,0.0,92,0.00,,---,0.00,VWS V14.01,2013-01-28 23:40:00,
2013-01-28 18:45:00,25.6,23.6,30.11,SSE,159,0.0,0.0,92,0.00,,---,0.00,VWS V14.01,2013-01-28 23:45:00,
2013-01-28 18:50:00,25.7,24.0,30.11,SSE,159,0.0,0.0,93,0.00,,---,0.00,VWS V14.01,2013-01-28 23:50:00,
2013-01-28 18:55:00,25.8,24.1,30.11,SSE,159,0.0,0.0,93,0.00,,---,0.00,VWS V14.01,2013-01-28 23:55:00,
2013-01-28 19:00:00,25.9,23.9,30.11,SSE,159,0.0,0.0,92,0.00,,---,0.00,VWS V14.01,2013-01-29 00:00:00,
2013-01-28 19:05:00,25.9,23.9,30.09,SSE,159,0.0,0.0,92,0.00,,---,0.00,VWS V14.01,2013-01-29 00:05:00,
2013-01-28 19:10:00,25.9,23.9,30.09,SSE,159,0.0,0.0,92,0.00,,---,0.00,VWS V14.01,2013-01-29 00:10:00,
2013-01-28 19:15:00,26.0,24.0,30.09,SSE,159,0.0,0.0,92,0.00,,---,0.00,VWS V14.01,2013-01-29 00:15:00,
2013-01-28 19:20:00,26.0,24.3,30.10,SSE,159,0.0,0.0,93,0.00,,---,0.00,VWS V14.01,2013-01-29 00:20:00,
2013-01-28 19:25:00,26.1,24.4,30.09,SSE,159,0.0,0.0,93,0.00,,---,0.00,VWS V14.01,2013-01-29 00:25:00,
2013-01-28 19:30:00,26.2,24.5,30.10,SSE,159,0.0,0.0,93,0.00,,---,0.00,VWS V14.01,2013-01-29 00:30:00,
2013-01-28 19:35:00,26.3,24.6,30.12,SSE,159,0.0,0.0,93,0.00,,---,0.00,VWS V14.01,2013-01-29 00:35:00,
2013-01-28 19:40:00,26.3,24.6,30.11,SSE,159,0.0,1.0,93,0.00,,---,0.00,VWS V14.01,2013-01-29 00:40:00,
2013-01-28 19:45:00,26.4,24.6,30.10,SSE,159,0.0,0.0,93,0.00,,---,0.00,VWS V14.01,2013-01-29 00:45:00,
2013-01-28 19:50:00,26.4,24.6,30.09,SSE,159,0.0,0.0,93,0.00,,---,0.00,VWS V14.01,2013-01-29 00:50:00,
2013-01-28 19:55:00,26.4,24.6,30.09,SSE,159,0.0,0.0,93,0.00,,---,0.00,VWS V14.01,2013-01-29 00:55:00,
2013-01-28 20:00:00,26.5,24.8,30.10,SSE,159,0.0,0.0,93,0.00,,---,0.00,VWS V14.01,2013-01-29 01:00:00,
2013-01-28 20:05:00,26.5,24.8,30.10,SSE,159,0.0,1.0,93,0.00,,---,0.00,VWS V14.01,2013-01-29 01:05:00,
2013-01-28 20:10:00,26.4,24.6,30.09,SSE,159,0.0,0.0,93,0.00,,---,0.00,VWS V14.01,2013-01-29 01:10:00,
2013-01-28 20:15:00,26.4,24.4,30.09,SSE,159,0.0,1.0,92,0.00,,---,0.00,VWS V14.01,2013-01-29 01:15:00,
2013-01-28 20:20:00,26.3,24.6,30.08,SSE,159,0.0,0.0,93,0.00,,---,0.00,VWS V14.01,2013-01-29 01:20:00,
2013-01-28 20:25:00,26.3,24.6,30.07,SSE,159,0.0,0.0,93,0.00,,---,0.00,VWS V14.01,2013-01-29 01:25:00,
2013-01-28 20:30:00,26.4,24.6,30.09,SSE,159,0.0,1.0,93,0.00,,---,0.00,VWS V14.01,2013-01-29 01:30:00,
2013-01-28 20:35:00,26.4,24.6,30.08,SSE,159,0.0,1.0,93,0.00,,---,0.00,VWS V14.01,2013-01-29 01:35:00,
2013-01-28 20:40:00,26.4,24.6,30.06,SSE,159,0.0,0.0,93,0.00,,---,0.00,VWS V14.01,2013-01-29 01:40:00,
2013-01-28 20:45:00,26.5,24.8,30.07,SSE,159,0.0,0.0,93,0.00,,---,0.00,VWS V14.01,2013-01-29 01:45:00,
2013-01-28 20:50:00,26.6,25.1,30.07,SSE,159,0.0,0.0,94,0.00,,---,0.00,VWS V14.01,2013-01-29 01:50:00,
2013-01-28 20:55:00,26.7,25.2,30.07,SSE,159,0.0,0.0,94,0.00,,---,0.00,VWS V14.01,2013-01-29 01:55:00,
2013-01-28 21:00:00,26.8,25.3,30.06,SSE,159,0.0,0.0,94,0.00,,---,0.00,VWS V14.01,2013-01-29 02:00:00,
2013-01-28 21:05:00,27.0,25.5,30.05,SSE,159,0.0,0.0,94,0.00,,---,0.00,VWS V14.01,2013-01-29 02:05:00,
2013-01-28 21:10:00,27.0,25.5,30.05,SSE,159,0.0,1.0,94,0.00,,---,0.00,VWS V14.01,2013-01-29 02:10:00,
2013-01-28 21:15:00,27.1,25.6,30.04,SSE,159,0.0,2.0,94,0.00,,---,0.00,VWS V14.01,2013-01-29 02:15:00,
2013-01-28 21:20:00,27.2,25.7,30.04,SSE,159,0.0,0.0,94,0.00,,---,0.00,VWS V14.01,2013-01-29 02:20:00,
2013-01-28 21:25:00,27.3,25.8,30.05,SSE,159,0.0,0.0,94,0.00,,---,0.00,VWS V14.01,2013-01-29 02:25:00,
2013-01-28 21:30:00,27.4,25.9,30.04,SSE,159,0.0,0.0,94,0.00,,---,0.00,VWS V14.01,2013-01-29 02:30:00,
2013-01-28 21:35:00,27.5,26.0,30.04,SSE,159,0.0,2.0,94,0.00,,---,0.00,VWS V14.01,2013-01-29 02:35:00,
2013-01-28 21:40:00,27.5,26.0,30.04,SSE,159,0.0,0.0,94,0.00,,---,0.00,VWS V14.01,2013-01-29 02:40:00,
2013-01-28 21:45:00,27.6,26.1,30.04,SSE,159,0.0,0.0,94,0.00,,---,0.00,VWS V14.01,2013-01-29 02:45:00,
2013-01-28 21:50:00,27.6,26.1,30.04,SSE,159,0.0,0.0,94,0.00,,---,0.00,VWS V14.01,2013-01-29 02:50:00,
2013-01-28 21:55:00,27.6,26.1,30.04,SSE,159,0.0,0.0,94,0.00,,---,0.00,VWS V14.01,2013-01-29 02:55:00,
2013-01-28 22:00:00,27.6,26.1,30.04,SSE,159,0.0,0.0,94,0.00,,---,0.00,VWS V14.01,2013-01-29 03:00:00,
2013-01-28 22:05:00,27.6,26.1,30.03,SSE,159,0.0,0.0,94,0.00,,---,0.00,VWS V14.01,2013-01-29 03:05:00,
2013-01-28 22:10:00,27.7,26.2,30.03,SSE,159,0.0,0.0,94,0.00,,---,0.00,VWS V14.01,2013-01-29 03:10:00,
2013-01-28 22:15:00,27.7,26.2,30.03,SSE,159,0.0,0.0,94,0.00,,---,0.00,VWS V14.01,2013-01-29 03:15:00,
2013-01-28 22:20:00,27.7,26.2,30.03,SSE,159,0.0,0.0,94,0.00,,---,0.00,VWS V14.01,2013-01-29 03:20:00,
2013-01-28 22:25:00,27.7,26.2,30.03,SSE,159,0.0,0.0,94,0.00,,---,0.00,VWS V14.01,2013-01-29 03:25:00,
2013-01-28 22:30:00,27.7,26.2,30.03,SSE,159,0.0,0.0,94,0.00,,---,0.00,VWS V14.01,2013-01-29 03:30:00,
2013-01-28 22:35:00,27.7,26.2,30.03,SSE,159,0.0,0.0,94,0.00,,---,0.00,VWS V14.01,2013-01-29 03:35:00,
2013-01-28 22:40:00,27.6,26.1,30.03,SSE,159,0.0,0.0,94,0.00,,---,0.00,VWS V14.01,2013-01-29 03:40:00,
2013-01-28 22:45:00,27.7,26.2,30.03,SSE,159,0.0,0.0,94,0.00,,---,0.00,VWS V14.01,2013-01-29 03:45:00,
2013-01-28 22:50:00,27.6,26.1,30.03,SSE,159,0.0,0.0,94,0.00,,---,0.00,VWS V14.01,2013-01-29 03:50:00,
2013-01-28 22:55:00,27.6,26.1,30.03,SSE,159,0.0,0.0,94,0.00,,---,0.00,VWS V14.01,2013-01-29 03:55:00,
2013-01-28 23:00:00,27.7,26.2,30.03,SSE,159,0.0,0.0,94,0.00,,---,0.00,VWS V14.01,2013-01-29 04:00:00,
2013-01-28 23:05:00,27.7,26.2,30.03,SSE,159,0.0,1.0,94,0.00,,---,0.00,VWS V14.01,2013-01-29 04:05:00,
2013-01-28 23:10:00,27.7,26.2,30.03,SSE,159,0.0,0.0,94,0.00,,---,0.00,VWS V14.01,2013-01-29 04:10:00,
2013-01-28 23:15:00,27.6,26.1,30.03,ENE,73,0.0,2.0,94,0.00,,---,0.00,VWS V14.01,2013-01-29 04:15:00,
2013-01-28 23:20:00,27.4,25.9,30.03,ENE,73,0.0,1.0,94,0.00,,---,0.00,VWS V14.01,2013-01-29 04:20:00,
2013-01-28 23:25:00,27.3,25.8,30.04,ENE,73,1.0,1.0,94,0.00,,---,0.00,VWS V14.01,2013-01-29 04:25:00,
2013-01-28 23:30:00,27.2,25.7,30.03,ENE,73,0.0,1.0,94,0.00,,---,0.00,VWS V14.01,2013-01-29 04:30:00,
2013-01-28 23:35:00,27.1,25.6,30.03,ENE,73,0.0,0.0,94,0.00,,---,0.00,VWS V14.01,2013-01-29 04:35:00,
2013-01-28 23:40:00,26.9,25.1,30.03,ENE,73,0.0,0.0,93,0.00,,---,0.00,VWS V14.01,2013-01-29 04:40:00,
2013-01-28 23:45:00,26.8,25.0,30.03,ENE,73,0.0,1.0,93,0.00,,---,0.00,VWS V14.01,2013-01-29 04:45:00,
2013-01-28 23:50:00,26.8,25.0,30.03,ENE,73,0.0,0.0,93,0.00,,---,0.00,VWS V14.01,2013-01-29 04:50:00,
2013-01-28 23:55:00,26.7,25.2,30.03,ENE,73,0.0,2.0,94,0.00,,---,0.00,VWS V14.01,2013-01-29 04:55:00,